Weather History for Telfer, WE

Change the Weather History Date:

Monday, January 7, 2013

  Actual Average Record
Temperature  
Mean Temperature 102 °F -  
Max Temperature 116 °F - - ()
Min Temperature 88 °F - - ()
Cooling Degree Days 37    
Growing Degree Days 52 (Base 50)    
Moisture  
Dew Point 54 °F    
Average Humidity 19    
Maximum Humidity 33    
Minimum Humidity 6    
Precipitation  
Precipitation 0.00 in - - ()
Sea Level Pressure  
Sea Level Pressure 29.67 in    
Wind  
Wind Speed 11 mph ()    
Max Wind Speed 33 mph    
Max Gust Speed 69 mph    
T = Trace of Precipitation, MM = Missing Value Source: Averaged Metar Reports

Daily Weather History Graph

Daily Weather History Graph

Search for Another Location

Airport:

Trip Planner

Search our weather history database for the weather conditions in past years. The results will help you decide how hot, cold, wet, or windy it might be!

Date:

Astronomy

Jan. 07, 2013 Rise Set
Actual Time 5:15 AM WST 6:38 PM WST
Civil Twilight 4:50 AM WST 7:03 PM WST
Nautical Twilight 4:21 AM WST 7:33 PM WST
Astronomical Twilight 3:50 AM WST 8:03 PM WST
Moon 12:35 AM WST (1/7) 1:56 PM WST (1/7)
Length of Visible Light 14h 12m
Length of Day
13h 23m
Waning Crescent, 28% of the Moon is Illuminated
Jan 7
Waning Crescent
Jan 12
New
Jan 19
First Quarter
Jan 27
Full
Feb 3
Last Quarter

Hourly Weather History & Observations

Time (WST) Temp. Heat Index Dew Point Humidity Pressure Visibility Wind Dir Wind Speed Gust Speed Precip Events Conditions
12:00 AM 94 °F - 55 °F 18% 29.68 in - WNW 4.6 mph - -  
12:00 AM 95.0 °F 93.0 °F 55.4 °F 26% 29.74 in - WNW 4.6 mph - N/A   Unknown
1:00 AM 93.2 °F 91.9 °F 57.2 °F 30% 29.74 in - SW 5.8 mph - N/A   Unknown
2:00 AM 93 °F - 58 °F 22% 29.65 in - West 6.9 mph - -  
3:00 AM 92 °F - 59 °F 23% 29.65 in - SW 8.1 mph - -  
3:00 AM 93.2 °F 92.6 °F 59.0 °F 32% 29.71 in - SW 8.1 mph - N/A   Unknown
4:00 AM 89.6 °F 88.1 °F 57.2 °F 33% 29.74 in - ESE 15.0 mph - N/A   Unknown
5:00 AM 89 °F - 55 °F 22% 29.68 in - ESE 2.3 mph - -  
5:00 AM 89.6 °F 87.7 °F 55.4 °F 31% 29.74 in - ESE 2.3 mph - N/A   Unknown
6:00 AM 91 °F - 57 °F 22% 29.68 in - SSW 5.8 mph - -  
6:00 AM 91.4 °F 89.9 °F 57.2 °F 31% 29.74 in - SSW 5.8 mph - N/A   Unknown
6:52 AM 100.4 °F 99.7 °F 57.2 °F 24% 29.77 in - SSE 8.1 mph - N/A   Unknown
7:00 AM 100.4 °F 100.2 °F 59.0 °F 25% 29.77 in - SSE 9.2 mph - N/A   Unknown
8:00 AM 102 °F - 57 °F 14% 29.70 in - SE 11.5 mph - -  
8:00 AM 102.2 °F 101.4 °F 57.2 °F 22% 29.77 in - SE 11.5 mph - N/A   Unknown
9:00 AM 106 °F - 52 °F 10% 29.68 in - ESE 11.5 mph - -  
9:00 AM 105.8 °F - 51.8 °F 17% 29.74 in - ESE 11.5 mph - N/A   Unknown
11:00 AM 111 °F - 51 °F 8% 29.65 in - ESE 10.4 mph - -  
11:00 AM 111.2 °F - 51.8 °F 14% 29.71 in - ESE 10.4 mph - N/A   Unknown
12:00 PM 110 °F - 52 °F 8% 29.62 in - ESE 12.7 mph - -  
12:00 PM 109.4 °F - 51.8 °F 15% 29.68 in - ESE 12.7 mph - N/A   Unknown
1:00 PM 111.2 °F - 50.0 °F 13% 29.65 in - East 15.0 mph 32.2 mph N/A   Unknown
1:07 PM 113.0 °F - 51.8 °F 13% 29.65 in - East 17.3 mph 28.8 mph N/A   Unknown
2:00 PM 113 °F - 50 °F 7% 29.57 in - ENE 17.3 mph - -  
2:00 PM 113.0 °F - 50.0 °F 13% 29.62 in - ENE 17.3 mph - N/A   Unknown
3:00 PM 114 °F - 49 °F 6% 29.55 in - East 17.3 mph - -  
3:00 PM 114.8 °F - 50.0 °F 12% 29.62 in - East 17.3 mph - N/A   Unknown
4:00 PM 114.8 °F - 50.0 °F 12% 29.59 in - East 16.1 mph - N/A   Unknown
4:55 PM 104.0 °F 102.3 °F 53.6 °F 19% 29.62 in - NNE 18.4 mph 36.8 mph N/A   Unknown
5:00 PM 104 °F - 55 °F 12% 29.55 in - NNE 17.3 mph - -  
5:00 PM 104.0 °F 102.9 °F 55.4 °F 20% 29.62 in - NNE 17.3 mph 31.1 mph N/A   Unknown
6:00 PM 107 °F - 50 °F 8% 29.57 in - SE 17.3 mph - -  
6:00 PM 107.6 °F - 50.0 °F 15% 29.62 in - SE 17.3 mph - N/A   Unknown
6:10 PM 104.0 °F 102.3 °F 53.6 °F 19% 29.65 in - East 26.5 mph - N/A   Unknown
6:12 PM 102.2 °F 102.4 °F 59.0 °F 24% 29.65 in - East 33.4 mph 69.0 mph N/A   Unknown
6:14 PM 95.0 °F 94.4 °F 59.0 °F 30% 29.68 in - SE 27.6 mph 69.0 mph N/A   Unknown
6:16 PM 95.0 °F 93.7 °F 57.2 °F 28% 29.68 in - East 21.9 mph 69.0 mph N/A   Unknown
6:19 PM 98.6 °F 97.6 °F 57.2 °F 25% 29.68 in - East 23.0 mph 69.0 mph N/A   Unknown
6:24 PM 100.4 °F 100.2 °F 59.0 °F 25% 29.68 in - NE 17.3 mph 35.7 mph N/A   Unknown
7:00 PM 102.2 °F - 51.8 °F 18% 29.65 in - SE 5.8 mph - N/A   Unknown
7:52 PM 100.4 °F 98.4 °F 53.6 °F 21% 29.71 in - ESE 18.4 mph - N/A   Unknown
7:53 PM 100.4 °F 98.4 °F 53.6 °F 21% 29.71 in - ESE 21.9 mph 35.7 mph N/A   Unknown
8:00 PM 101 °F - 53 °F 12% 29.64 in - East 21.9 mph - -  
8:00 PM 100.4 °F 98.4 °F 53.6 °F 21% 29.71 in - East 21.9 mph 42.6 mph N/A   Unknown
9:00 PM 99 °F - 56 °F 15% 29.65 in - SE 6.9 mph - -  
9:00 PM 98.6 °F 97.2 °F 55.4 °F 24% 29.71 in - SE 6.9 mph - N/A   Unknown
9:25 PM 102.2 °F - 50.0 °F 17% 29.74 in - ESE 26.5 mph - N/A   Unknown
9:26 PM 102.2 °F - 50.0 °F 17% 29.74 in - ESE 24.2 mph 35.7 mph N/A   Unknown
9:29 PM 104.0 °F - 48.2 °F 15% 29.71 in - NE 10.4 mph 35.7 mph N/A   Unknown
10:00 PM 102.2 °F - 50.0 °F 17% 29.71 in - ENE 9.2 mph - N/A   Unknown
11:00 PM 96 °F - 56 °F 17% 29.62 in - North 5.8 mph - -  
11:00 PM 95.0 °F 93.7 °F 57.2 °F 28% 29.68 in - North 5.8 mph - N/A   Unknown